FW6947 Weather Reports


time (UTC)temp
C
wind
direction
speed
KPH
gust
KPH
rain 1hr
cm
rain 24hr
cm
rain mn
cm
humidity
%
barometer
mb
20260906230100 19 0 0.0 16.1 0.00 0.00 0.00 37 1030.2
20260906224552 20 221 3.2 22.5 0.00 0.00 0.00 37 1030.3
20260906223050 20 360 6.4 19.3 0.00 0.00 0.00 38 1030.2
20260906221602 18 229 1.6 19.3 0.00 0.00 0.00 39 1030.3
20260906220056 19 199 0.0 16.1 0.00 0.00 0.00 38 1030.5
20260906214602 19 360 0.0 19.3 0.00 0.00 0.00 37 1030.8
20260906213059 19 360 3.2 17.7 0.00 0.00 0.00 36 1030.9
20260906211557 20 360 3.2 22.5 0.00 0.00 0.00 34 1030.9
20260906210055 21 360 6.4 20.9 0.00 0.00 0.00 31 1031.0
20260906204546 21 360 4.8 17.7 0.00 0.00 0.00 32 1031.4
20260906203102 19 0 1.6 24.1 0.00 0.00 0.00 35 1031.3
20260906201557 20 0 3.2 25.7 0.00 0.00 0.00 33 1031.6
20260906200106 20 0 6.4 20.9 0.00 0.00 0.00 34 1031.7
20260906194553 20 0 6.4 24.1 0.00 0.00 0.00 35 1031.7
20260906193049 20 0 0.0 19.3 0.00 0.00 0.00 34 1031.7
20260906191548 20 218 1.6 16.1 0.00 0.00 0.00 33 1031.9
20260906190104 21 0 0.0 14.5 0.00 0.00 0.00 30 1032.0
20260906184619 22 172 3.2 17.7 0.00 0.00 0.00 31 1032.1
20260906183052 22 0 3.2 14.5 0.00 0.00 0.00 31 1032.5
20260906181552 21 310 0.0 9.7 0.00 0.00 0.00 30 1032.4
20260906180056 21 360 1.6 14.5 0.00 0.00 0.00 31 1032.5
20260906174552 21 0 1.6 19.3 0.00 0.00 0.00 31 1032.5
20260906173055 22 0 0.0 16.1 0.00 0.00 0.00 30 1032.7
20260906171602 21 360 0.0 8.0 0.00 0.00 0.00 29 1032.7
20260906170054 21 0 0.0 12.9 0.00 0.00 0.00 28 1032.9
20260906164551 20 0 1.6 14.5 0.00 0.00 0.00 29 1032.6
20260906163048 19 360 0.0 6.4 0.00 0.00 0.00 30 1032.5
20260906161557 19 150 0.0 12.9 0.00 0.00 0.00 30 1032.5
20260906160058 18 197 3.2 12.9 0.00 0.00 0.00 28 1032.6
20260906154551 18 0 0.0 14.5 0.00 0.00 0.00 28 1032.4
20260906153047 18 0 3.2 12.9 0.00 0.00 0.00 28 1032.3
20260906151556 18 0 1.6 12.9 0.00 0.00 0.00 28 1032.3
20260906150056 17 0 1.6 12.9 0.00 0.00 0.00 31 1032.1
20260906144550 16 0 3.2 16.1 0.00 0.00 0.00 34 1032.0
20260906143059 14 360 0.0 12.9 0.00 0.00 0.00 37 1032.3
20260906141555 12 0 0.0 8.0 0.00 0.00 0.00 42 1032.3
20260906140053 12 0 0.0 6.4 0.00 0.00 0.00 42 1032.0
20260906134613 11 0 0.0 3.2 0.00 0.00 0.00 43 1032.1
20260906133055 11 0 0.0 1.6 0.00 0.00 0.00 46 1032.0
20260906131559 11 0 0.0 0.0 0.00 0.00 0.00 44 1032.0
20260906130146 11 0 0.0 0.0 0.00 0.00 0.00 41 1031.7
20260906124608 11 0 0.0 0.0 0.00 0.00 0.00 44 1031.7
20260906123053 11 0 0.0 0.0 0.00 0.00 0.00 43 1031.6
20260906121603 10 0 0.0 0.0 0.00 0.00 0.00 46 1031.5
20260906120111 10 0 0.0 0.0 0.00 0.00 0.00 44 1031.7
20260906114554 10 0 0.0 0.0 0.00 0.00 0.00 45 1031.5
20260906113056 10 0 0.0 0.0 0.00 0.00 0.00 44 1031.6
20260906111551 11 0 0.0 0.0 0.00 0.00 0.00 44 1031.4
20260906110059 11 0 0.0 0.0 0.00 0.00 0.00 42 1031.3
20260906104556 11 0 0.0 0.0 0.00 0.00 0.00 41 1031.2
20260906103057 11 0 0.0 3.2 0.00 0.00 0.00 44 1031.3
20260906101549 11 0 0.0 0.0 0.00 0.00 0.00 45 1031.2
20260906100046 10 0 0.0 0.0 0.00 0.00 0.00 45 1031.2
20260906094556 10 0 0.0 0.0 0.00 0.00 0.00 46 1031.5
20260906093055 10 0 0.0 0.0 0.00 0.00 0.00 50 1031.7
20260906091559 10 0 0.0 0.0 0.00 0.00 0.00 51 1031.6
20260906090055 10 0 0.0 0.0 0.00 0.00 0.00 52 1031.6
20260906084549 10 0 0.0 0.0 0.00 0.00 0.00 52 1031.7
20260906083052 10 0 0.0 0.0 0.00 0.00 0.00 50 1031.8
20260906081550 10 0 0.0 0.0 0.00 0.00 0.00 52 1031.9
20260906080057 10 0 0.0 0.0 0.00 0.00 0.00 49 1031.8
20260906074553 10 0 0.0 0.0 0.00 0.00 0.00 50 1032.0
20260906073051 10 0 0.0 0.0 0.00 0.00 0.00 52 1032.0
20260906071547 10 0 0.0 0.0 0.00 0.00 0.00 53 1032.1
20260906070058 10 0 0.0 3.2 0.00 0.00 0.00 55 1032.1
20260906064554 10 0 0.0 3.2 0.00 0.00 0.00 54 1032.1
20260906063053 10 0 0.0 0.0 0.00 0.00 0.00 58 1032.2
20260906061550 10 0 0.0 0.0 0.00 0.00 0.00 60 1032.1
20260906060114 10 0 0.0 0.0 0.00 0.00 0.00 62 1032.3
20260906054553 10 0 0.0 0.0 0.00 0.00 0.00 61 1032.5
20260906053051 10 0 0.0 0.0 0.00 0.00 0.00 60 1032.5
20260906051551 10 0 0.0 0.0 0.00 0.00 0.00 61 1032.5
20260906050101 11 0 0.0 0.0 0.00 0.00 0.00 60 1032.5
20260906044552 11 0 0.0 0.0 0.00 0.00 0.00 58 1032.6
20260906043050 11 0 0.0 1.6 0.00 0.00 0.00 58 1032.6
20260906041547 11 0 0.0 0.0 0.00 0.00 0.00 58 1032.4
20260906040058 11 0 0.0 0.0 0.00 0.00 0.00 57 1032.2
20260906034601 11 0 0.0 0.0 0.00 0.00 0.00 56 1032.5
20260906033049 11 0 0.0 0.0 0.00 0.00 0.00 54 1032.5
20260906031556 12 0 0.0 0.0 0.00 0.00 0.00 54 1032.4
20260906030054 12 0 0.0 0.0 0.00 0.00 0.00 52 1032.2
20260906024553 12 0 0.0 0.0 0.00 0.00 0.00 50 1032.1
20260906023107 13 0 0.0 0.0 0.00 0.00 0.00 50 1032.1
20260906021557 13 0 0.0 0.0 0.00 0.00 0.00 47 1031.9
20260906020057 14 0 0.0 0.0 0.00 0.00 0.00 45 1031.8
20260906014607 15 0 0.0 6.4 0.00 0.00 0.00 41 1031.8
20260906013102 16 0 0.0 6.4 0.00 0.00 0.00 39 1031.8
20260906011550 17 0 0.0 9.7 0.00 0.00 0.00 36 1031.7
20260906010050 17 0 3.2 14.5 0.00 0.00 0.00 36 1031.8
20260906004545 17 0 0.0 12.9 0.00 0.00 0.00 35 1031.8
20260906003050 17 176 1.6 9.7 0.00 0.00 0.00 35 1031.8
20260906001547 18 0 3.2 16.1 0.00 0.00 0.00 34 1031.8
20260906000109 18 360 0.0 17.7 0.00 0.00 0.00 35 1031.7
20260905234553 19 360 4.8 19.3 0.00 0.00 0.00 34 1031.6
20260905233050 20 0 3.2 17.7 0.00 0.00 0.00 33 1031.9
20260905231552 20 360 3.2 17.7 0.00 0.00 0.00 33 1031.7